Simultaneous Nadir Overpasses (SNOs) Predictions

Prediction of SNOs between GOES-17 and METOP-C Satellite Orbit:

Table of predicted SNOs for the next 14.0 days since TLE Epoch: 2/22/2020
Index Date Time (GOES-17) GOES-17 Lat,Lon METOP-C Lat,Lon Distance(km) Time Diff (sec)
1 02/23/2020 06:52:51 0.01,-137.21 -0.72,-140.62 387.99 80
2 02/24/2020 06:34:51 0.01,-137.20 0.37,-135.61 181.35 80
3 02/25/2020 18:51:02 -0.01,-137.21 0.65,-140.17 337.58 80
4 02/26/2020 18:33:02 -0.00,-137.20 -0.44,-135.17 231.45 80
5 02/28/2020 06:49:20 0.01,-137.18 -0.59,-139.75 293.46 80
6 02/29/2020 06:31:21 0.01,-137.17 0.57,-134.76 275.12 80
7 03/01/2020 18:47:32 -0.01,-137.16 0.47,-139.31 245.36 80
8 03/02/2020 18:29:31 -0.01,-137.15 -0.62,-134.31 322.60 80
9 03/04/2020 06:45:50 0.02,-137.11 -0.39,-138.90 203.92 80
10 03/05/2020 06:27:49 0.02,-137.09 0.70,-133.89 363.54 80
11 03/06/2020 18:44:01 -0.02,-137.07 0.29,-138.46 158.56 80




NCC Satellite Simultaneous Nadir Overpasses (SNOs) Prediction Service
